Погода в Стрезе

Италия     45°53′01″N   8°32′29″E
темп.,
°C
ветер,
м/с
пор.,
м/с
влажн.,
%
обл.,
%
осадки,
мм/ч
давл.,
гПа
погр.,
м
15 мая, сб
сб1523:00+6с2294100 0.0 101148
02:00+3ссз339194 0.0 101258
05:00+2ссз3388100 0.0 101352
08:00+6с1275100 0.0 101296
11:00+10ююв1154100 0.0 1011681
14:00+12ююв2251100 0.1 10091689
17:00+12ю125698 0.1 10071498
20:00+7сз2392100 0.9 1009110
16 мая, вс
вс1623:00+7ссз2394100 0.4 101088
02:00+7ссз229282 0.5 100951
05:00+4ссз339315 0.0 101044
08:00+8сз1281100 0.0 1009116
11:00+13ююв2256100 0.0 10071157
14:00+12юв116775 0.4 1007965
17:00+12зсз2272100 0.5 1006685
20:00+10сз238599 0.8 1007134
17 мая, пн
пн1723:00+8сз238599 0.1 100771
02:00+6ссз348456 0.1 100883
05:00+4ссз348453 0.0 100876
08:00+9ссз346731 0.0 1007244
11:00+14ссз22391 0.0 10061254
14:00+17сз33272 0.0 10062284
17:00+16сз34291 0.0 10061877
20:00+11сз34580 0.0 100876
18 мая, вт
вт1823:00+5ссз45690 0.0 101379
02:00+4ссз34733 0.0 101365
05:00+3ссз22760 0.0 101538
08:00+8ссз22605 0.0 1014233
11:00+15зсз133917 0.0 10121935
14:00+16сз35264 0.0 10122882
17:00+15ссз36270 0.0 10122287
20:00+10ссз35540 0.0 1015111
19 мая, ср
ср1923:00+4ссз45680 0.0 102088
02:00+3ссз45704 0.0 102185
05:00+2ссз34721 0.0 102174
08:00+7ссз22540 0.0 1020196
11:00+13ююв22381 0.0 10181345
14:00+15ююв333798 0.0 10162109
17:00+15св134216 0.3 10161576
20:00+11ссз34580 0.3 101898